Location: Newark
(49.4900°N, 20.6656°E)
Time: 06:01:49
(UTC+00:00)

FALCON 9 DEB - Pass Details

Date: 24 September 2020
Orbit: 161 x 185 km, 53.0° (Epoch: 28 September)

Event Time Altitude Azimuth Distance (km) Brightness Sun altitude
Exits shadow 02:08:45 - 67° (ENE) 1,019 ? -22.4°
Enters shadow 03:01:46 -73° 279° (W) 12,447 ? -14.5°
Maximum altitude 03:39:23 63° 20° (NNE) 223 ? -8.6°
Sets 03:42:58 0° 108° (ESE) 1,601 ? -8.0°
